Regional Weather Roundup
Issued by NWS

Home | Current Version | Previous Version | Text Only | Print | Product List | Glossary Off
Versions: 1 2 3 4 5 6 7 8 9 10 11 12 13 14 15 16 17 18 19 20 21 22 23 24 25 26 27 28 29 30 31 32 33 34 35 36 37 38 39 40 41 42 43 44 45 46 47 48

000
ASUS43 KDMX 302007
RWRIA

WEATHER ROUNDUP FOR IOWA
NATIONAL WEATHER SERVICE DES MOINES IA
300 PM CDT SUN AUG 30 2015

NOTE: "FAIR" INDICATES FEW OR NO CLOUDS BELOW 12,000 FEET WITH NO
SIGNIFICANT WEATHER AND/OR OBSTRUCTIONS TO VISIBILITY.

* - THESE STATIONS ARE NOT NWS STATIONS...THUS NOT UNDER NWS
QUALITY CONTROL.  THEY ALSO DO NOT REPORT WEATHER SUCH
AS PRECIPITATION OR FOG.

IAZ001>003-012>014-020>022-031>034-043>046-302100-
   NORTHWEST IOWA

CITY           SKY/WX    TMP DP  RH WIND       PRES   REMARKS
CARROLL *      CLOUDY    72  68  88 SW13      30.04F
CHEROKEE *     SUNNY     73  68  83 S12       30.00F
DENISON *      CLOUDY    70  64  83 S12G18    30.02F
LE MARS *      PTSUNNY   70  66  88 S9G18     30.00F
ORANGE CITY *  SUNNY     70  64  83 S12       29.99F
SHELDON *      SUNNY     75  68  78 S12G17    29.97F
SPENCER        SUNNY     77  66  68 S10       30.00F
STORM LAKE *   SUNNY     72  66  83 S12       30.03S
$$

IAZ055>058-069>071-079>083-090>094-302100-
   SOUTHWEST IOWA

CITY           SKY/WX    TMP DP  RH WIND       PRES   REMARKS
ATLANTIC *     CLOUDY    75  66  73 S8        30.04F
AUDUBON *      PTSUNNY   73  66  78 S8        30.05F
CLARINDA *     PTSUNNY   77  68  73 SW6       30.05F
COUNCIL BLFS * CLOUDY    73  66  78 S10       30.04F
CRESTON *      PTSUNNY   75  68  78 S5        30.06F
HARLAN  *      CLOUDY    73 -36   1 SW13      30.07F
LAMONI         MOSUNNY   79  68  69 CALM      30.04F HX  81
RED OAK *      CLOUDY    77  68  73 S7G14     30.04F
SHENANDOAH *   CLOUDY    77  68  73 VRB7      30.04F
$$

IAZ047>049-059>061-072>074-084-302100-
   CENTRAL IOWA

CITY           SKY/WX    TMP DP  RH WIND       PRES   REMARKS
AMES           CLOUDY    74  66  76 SW7       30.04F
ANKENY *       CLOUDY    75  68  78 SE7       30.03F
CHARITON *     MOSUNNY   79  68  69 S7        30.04F HX  81
DES MOINES     PTSUNNY   77  67  71 S3        30.03F
GRINNELL*      CLOUDY    73  66  78 S5        30.06F
KNOXVILLE *    CLOUDY    75  66  73 CALM      30.03F
MARSHALLTOWN   CLOUDY    72  66  81 S7        30.05F
PELLA *        CLOUDY    77  70  78 SE3       30.06F
PERRY *        CLOUDY    75  66  73 SW8       30.04F
$$

IAZ004>006-015-016-023>025-035-036-302100-
   NORTH CENTRAL IOWA

CITY           SKY/WX    TMP DP  RH WIND       PRES   REMARKS
ALGONA *       PTSUNNY   75  68  78 S13       30.02S
CLARION *      CLOUDY    73  66  78 S10       30.03F
ESTHERVILLE    SUNNY     75  66  73 S13       30.00F
FORT DODGE *   CLOUDY    72  64  78 S9        30.04F
MASON CITY     PTSUNNY   74  65  73 S12       30.05F
FOREST CITY *  MOSUNNY   72  64  78 S13       30.03F
IOWA FALLS *   CLOUDY    73  64  73 S8        30.06S
$$

IAZ007>011-017>019-026>030-037>042-050>054-066-302100-
   NORTHEAST IOWA

CITY           SKY/WX    TMP DP  RH WIND       PRES   REMARKS
CEDAR RAPIDS   PTSUNNY   73  66  78 S7        30.05F
CHARLES CITY * CLOUDY    72  66  83 S9        30.05F
CLINTON *      PTSUNNY   73  64  73 CALM      30.08F
DECORAH *      CLOUDY    72  64  78 S10       30.05S
DUBUQUE        PTSUNNY   73  63  70 SW3       30.06F
MONTICELLO *   PTSUNNY   73  64  73 CALM      30.05F
OELWEIN *      CLOUDY    72  64  78 S7        30.06F
WATERLOO       CLOUDY    73  64  73 S10       30.04F
$$

IAZ064-065-067-068-078-302100-
   EAST CENTRAL IOWA

CITY           SKY/WX    TMP DP  RH WIND       PRES   REMARKS
DAVENPORT      MOSUNNY   78  65  63 VRB5      30.05F HX  80
IOWA CITY      CLOUDY    76  66  71 VRB5      30.06F
MT. PLEASANT * MOSUNNY   82  63  51 CALM      30.04F HX  83
MUSCATINE *    PTSUNNY   81  66  61 CALM      30.04F HX  83
QUAD CITIES    SUNNY     79  65  62 CALM      30.04F HX  81
$$

IAZ062-063-075>077-085>089-095>099-302100-
   SOUTHEAST IOWA

CITY           SKY/WX    TMP DP  RH WIND       PRES   REMARKS
BURLINGTON     SUNNY     81  66  60 VRB3      30.03F HX  83
FAIRFIELD *    MOSUNNY   77  68  73 MISG      30.05F
FORT MADISON * MOSUNNY   81  68  65 CALM      30.04F HX  83
KEOKUK *       PTSUNNY   82  68  61 VRB3      30.02F HX  85
OSKALOOSA *      N/A     75  66  73 CALM      30.05F
CENTERVILLE *  SUNNY     79  68  69 CALM      30.06F HX  81
OTTUMWA        SUNNY     76  69  79 CALM      30.03F
WASHINGTON *     N/A    N/A N/A N/A MISG        N/A
$$

ABBREVIATIONS USED IN REMARKS
   TC - TEMPERATURES IN CELSIUS
  WCI - WIND CHILL INDEX
   HX - HEAT INDEX
  VSB - VISIBILITY
$$




USA.gov is the U.S. government's official web portal to all federal, state and local government web resources and services.